Location: Boquerón
(10.0687°N, 67.9212°W)
Time: 09:57:47
(UTC+00:00)

SJ-6B - Pass Details

Date: 29 May 2024
Orbit: 489 x 548 km, 97.4° (Epoch: 16 June)

Event Time Altitude Azimuth Distance (km) Brightness Sun altitude
Exits shadow 23:35:21 16° 111° (ESE) 1,383 4.2 -11.2°
Maximum altitude 23:36:57 21° 78° (ENE) 1,182 4.1 -11.6°
Drops below altitude 10° 23:39:47 10° 27° (NNE) 1,713 5.3 -12.2°
Sets 23:42:12 0° 11° (N) 2,586 6.4 -12.8°
